Torna al catalogo

METEOR 2-5 DEB

AttivoPO
NORAD 39605·DEBRIS·🇷🇺 Russia

Lanciato Oct 31, 1979 da Plesetsk Cosmodrome

Loading…

Prossimi Passaggi (prossime 24 ore)

TLE

AggiornatoSource: Space-Track

Epoca: Sep 12, 2026, 18:59 UTC

1 39605U 79095CG  26255.79145818  .00005984  00000-0  14006-2 0  9995
2 39605  81.1766  13.3489 0019281  63.5420  88.2288 14.54407051665434

Traccia METEOR 2-5 DEB in tempo reale con AllMySat

Download on the App Store